[[{"header":{"parameterUnit":"m.s-1","parameterCategory":1,"la1":30.2991,"la2":30.254,"lo1":-89.0895,"lo2":-89.0444,"dy":0.0017,"dx":0.0017,"nx":28,"ny":28,"refTime":"2025-08-14T09:00:00:Z","depth":0,"parameterNumber":2,"parameterNumberName":"U-component_of_WINDS"},"data":[0,0,0,0,0,0,0,0,0,0,0,0,0,0,0,0,0,0,0,0,0,0,0,0,0,0,0,0,0,0,0,0,0,0,0,0,0,0,0,0,0,0,0,0,0,0,0,0,0,0,0,0,0,0,0,0,0,0,1.4948,1.4949,0,1.5064,1.5065,1.5066,1.5118,1.5118,1.5118,1.5118,1.524,1.5243,1.5246,0,0,0,0,0,0,0,0,0,0,0,0,0,1.4775,1.4777,1.4948,1.4949,1.495,1.5063,1.5065,1.5067,1.5118,1.5118,1.5118,1.5117,1.5238,1.5242,1.5247,0,0,0,0,0,0,0,0,0,0,0,0,0,1.4866,1.4778,1.4947,1.499,1.4995,1.5063,1.5065,1.5067,1.5118,1.5118,1.5118,1.5117,1.5237,1.5242,1.5247,1.5283,0,0,1.5263,1.5265,0,0,0,0,0,0,0,0,1.4861,1.4872,1.4982,1.4987,1.4993,1.5076,1.5049,1.514,1.5118,1.5071,1.5117,1.5117,1.5186,1.5195,1.5217,1.5289,1.5294,1.5263,1.5266,1.5268,1.527,0,0,0,0,0,0,0,1.4854,1.4868,1.4994,1.4984,1.499,1.5004,1.5017,1.5066,1.5128,1.5075,1.5079,1.5092,1.5188,1.5212,1.522,1.5296,1.5263,1.5267,1.5271,1.5273,1.5404,1.5405,0,0,0,0,0,0,1.4841,1.4862,1.499,1.4997,1.4925,1.5007,1.5022,1.5049,1.5128,1.514,1.5092,1.5094,1.5204,1.5214,1.5225,1.5273,1.5268,1.5273,1.5276,1.5404,1.5404,1.5405,0,0,0,0,0,0,1.4837,1.4852,1.4985,1.4931,1.4949,1.5011,1.5041,1.5052,1.5076,1.5141,1.5152,1.5105,1.5204,1.5218,1.5268,1.5278,1.5275,1.528,1.5403,1.5404,1.5405,1.5369,0,0,0,0,0,0,1.4832,1.485,1.4863,1.4931,1.4951,1.5025,1.5042,1.5054,1.5084,1.5087,1.5156,1.5167,1.5205,1.526,1.5273,1.5285,1.5284,1.5403,1.5404,1.5404,1.5369,1.5368,1.5367,0,0,0,0,0,1.4825,1.4849,1.4863,1.4879,1.4969,1.5026,1.5038,1.508,1.5084,1.5099,1.5141,1.5165,1.5275,1.5265,1.528,1.5293,1.5402,1.5403,1.5404,1.537,1.5368,1.5367,0,0,0,0,0,0,1.4781,1.4858,1.4875,1.4921,1.4966,1.5034,1.5054,1.5077,1.5122,1.5124,1.5176,1.5191,1.5237,1.5271,1.5258,1.5333,1.5341,1.5345,1.5309,1.5308,1.5307,1.5298,1.5288,0,0,0,0,0,1.4777,1.4815,1.4881,1.4915,1.4937,1.4991,1.5017,1.5046,1.5095,1.5115,1.5161,1.5209,1.5254,1.5283,1.5329,1.5374,1.5391,1.5391,1.539,1.5389,1.5391,1.5419,1.542,1.5408,1.5408,1.5408,0,0,1.4768,1.4815,1.4836,1.4907,1.4946,1.4986,1.5007,1.5048,1.5078,1.5122,1.5172,1.5207,1.5264,1.5313,1.5336,1.5342,1.5399,1.539,1.5388,1.5392,1.542,1.5421,1.5422,1.5409,1.5409,1.5409,0,0,1.4773,1.4812,1.4845,1.4883,1.4941,1.4977,1.4985,1.5049,1.5074,1.5125,1.5159,1.5197,1.5274,1.5313,1.5344,1.5364,1.5388,1.5378,1.5372,1.5398,1.5399,1.54,1.5408,1.541,1.5381,1.5381,1.5381,0,1.4755,1.4815,1.4859,1.4898,1.4929,1.497,1.5005,1.504,1.511,1.5131,1.5136,1.5234,1.5275,1.5334,1.5339,1.5362,1.5374,1.537,1.5395,1.5397,1.5399,1.5407,1.541,1.5379,1.5379,1.5379,1.538,0,1.4791,1.4832,1.4852,1.4918,1.4951,1.4988,1.5039,1.5068,1.5094,1.513,1.5182,1.5233,1.529,1.5306,1.5333,1.5369,1.5371,1.5385,1.5394,1.5397,1.5406,1.5409,1.5377,1.5377,1.5378,1.5378,0,0,1.477,1.486,1.4867,1.4898,1.4965,1.4998,1.5038,1.5093,1.5117,1.5164,1.5199,1.5264,1.5277,1.5312,1.5343,1.5366,1.538,1.5378,1.538,1.5377,1.5425,1.5413,1.5416,1.5396,1.5397,1.5398,1.542,0,1.4784,1.4855,1.4897,1.4951,1.4991,1.503,1.5065,1.5111,1.5146,1.5185,1.5225,1.527,1.5284,1.5305,1.533,1.5373,1.539,1.5372,1.5431,1.5432,1.5415,1.5421,1.5409,1.5427,1.5424,1.5424,1.5425,0,1.481,1.4855,1.4913,1.4977,1.4995,1.5025,1.508,1.5117,1.517,1.5194,1.5232,1.5264,1.5309,1.5314,1.5377,1.5363,1.539,1.5415,1.5417,1.5424,1.5428,1.5428,1.5434,1.5437,1.543,1.543,1.5429,0,1.4789,1.4865,1.491,1.4936,1.5011,1.5031,1.5064,1.5117,1.5147,1.5195,1.5216,1.5269,1.5298,1.5338,1.5384,1.5383,1.5442,1.5451,1.5465,1.5463,1.5475,1.5474,1.5485,1.5492,1.5492,1.5492,1.5492,0,1.48,1.4834,1.4902,1.493,1.497,1.5018,1.5057,1.5093,1.514,1.5176,1.5214,1.5248,1.5305,1.5346,1.5382,1.5429,1.5442,1.5464,1.5473,1.546,1.5458,1.5478,1.5478,1.5492,1.5492,1.5492,1.5492,0,1.4784,1.483,1.4882,1.4949,1.4967,1.4994,1.5052,1.5081,1.5118,1.5164,1.5178,1.5237,1.5287,1.5336,1.5404,1.5429,1.5476,1.5488,1.5457,1.5462,1.5473,1.5471,1.5498,1.5504,1.5506,1.5506,1.5506,0,1.4788,1.4815,1.4885,1.4912,1.4943,1.4986,1.5017,1.5066,1.5098,1.5161,1.5183,1.5236,1.5281,1.536,1.541,1.5462,1.5476,1.5482,1.5484,1.5471,1.5477,1.5474,1.5478,1.548,1.548,1.548,1.548,0,1.479,1.4812,1.4855,1.4907,1.4943,1.4987,1.5032,1.5052,1.511,1.5143,1.5195,1.523,1.5299,1.5352,1.541,1.5445,1.5473,1.5479,1.5485,1.5472,1.5453,1.5464,1.5453,1.5478,1.5478,1.5478,1.5478,1.5478,1.4784,1.481,1.4864,1.4911,1.495,1.4992,1.5022,1.5064,1.5107,1.5167,1.5194,1.5246,1.53,1.5381,1.5416,1.5458,1.5465,1.5474,1.5476,1.5477,1.5474,1.5446,1.5469,1.5469,1.547,1.547,1.547,0,1.4788,1.4825,1.4868,1.493,1.4967,1.4989,1.504,1.5071,1.5116,1.5163,1.5207,1.5267,1.5318,1.5372,1.5427,1.5451,1.5465,1.5464,1.5463,1.5471,1.5465,1.5455,1.5452,1.5452,1.5452,1.5452,1.5452,1.5452,1.4795,1.4841,1.487,1.4936,1.4973,1.5023,1.5051,1.509,1.5128,1.5193,1.5236,1.527,1.5321,1.538,1.5429,1.5444,1.5462,1.5458,1.5476,1.547,1.5471,1.5472,1.5462,1.5461,1.5461,1.5478,1.5478,1.5478]},{"header":{"parameterUnit":"m.s-1","parameterCategory":1,"la1":30.2991,"la2":30.254,"lo1":-89.0895,"lo2":-89.0444,"dy":0.0017,"dx":0.0017,"nx":28,"ny":28,"refTime":"2025-08-14T09:00:00:Z","depth":0,"parameterNumber":3,"parameterNumberName":"V-component_of_WINDS"},"data":[0,0,0,0,0,0,0,0,0,0,0,0,0,0,0,0,0,0,0,0,0,0,0,0,0,0,0,0,0,0,0,0,0,0,0,0,0,0,0,0,0,0,0,0,0,0,0,0,0,0,0,0,0,0,0,0,0,0,4.1559,4.156,0,4.1569,4.157,4.157,4.1566,4.1565,4.1565,4.1565,4.1574,4.1574,4.1574,0,0,0,0,0,0,0,0,0,0,0,0,0,4.1534,4.1535,4.1559,4.156,4.156,4.1569,4.157,4.157,4.1566,4.1565,4.1565,4.1565,4.1573,4.1574,4.1574,0,0,0,0,0,0,0,0,0,0,0,0,0,4.1545,4.1535,4.1559,4.1559,4.1559,4.1569,4.157,4.157,4.1566,4.1565,4.1565,4.1565,4.1573,4.1574,4.1575,4.1586,0,0,4.1577,4.1577,0,0,0,0,0,0,0,0,4.1544,4.1546,4.1559,4.1559,4.1559,4.1566,4.1564,4.1575,4.1566,4.1563,4.1565,4.1564,4.1571,4.1572,4.1575,4.1586,4.1586,4.1577,4.1577,4.1577,4.1578,0,0,0,0,0,0,0,4.1543,4.1545,4.1563,4.1559,4.1559,4.1557,4.1558,4.1566,4.1569,4.1563,4.1563,4.1564,4.1571,4.1574,4.1575,4.1587,4.1577,4.1577,4.1578,4.1578,4.1606,4.1606,0,0,0,0,0,0,4.1543,4.1545,4.1563,4.1564,4.1551,4.1558,4.1559,4.1564,4.1569,4.1569,4.1565,4.1564,4.1573,4.1574,4.1575,4.1587,4.1577,4.1578,4.1578,4.1605,4.1606,4.1606,0,0,0,0,0,0,4.1542,4.1545,4.1563,4.1554,4.1556,4.1559,4.1564,4.1564,4.1567,4.157,4.157,4.1567,4.1573,4.1574,4.1583,4.1587,4.1578,4.1579,4.1605,4.1605,4.1606,4.1612,0,0,0,0,0,0,4.1542,4.1544,4.1549,4.1554,4.1557,4.1571,4.1565,4.1565,4.1569,4.1568,4.1572,4.1573,4.1573,4.1582,4.1583,4.1588,4.1579,4.1605,4.1605,4.1606,4.1612,4.1613,4.1614,0,0,0,0,0,4.1541,4.1551,4.155,4.1552,4.1563,4.1571,4.1573,4.1573,4.1569,4.1573,4.1575,4.1572,4.1587,4.1583,4.1585,4.159,4.1604,4.1605,4.1606,4.1611,4.1613,4.1614,0,0,0,0,0,0,4.1547,4.1552,4.155,4.1562,4.1566,4.1571,4.1576,4.1575,4.158,4.1579,4.1578,4.1579,4.1588,4.159,4.1585,4.16,4.1595,4.1596,4.1598,4.16,4.1601,4.16,4.158,0,0,0,0,0,4.1549,4.1556,4.156,4.157,4.1572,4.1574,4.1577,4.1577,4.1581,4.1583,4.1585,4.1588,4.1593,4.1597,4.1602,4.1612,4.1612,4.1616,4.1617,4.1618,4.1619,4.1623,4.1625,4.1609,4.1609,4.1609,0,0,4.1555,4.1558,4.1563,4.1571,4.1574,4.158,4.1575,4.1583,4.1587,4.1584,4.1592,4.1593,4.1597,4.1606,4.161,4.1608,4.1623,4.1619,4.162,4.162,4.1624,4.1625,4.1627,4.1609,4.1609,4.1609,0,0,4.1568,4.1572,4.158,4.1583,4.1588,4.1589,4.159,4.1595,4.1595,4.1604,4.1601,4.1606,4.1615,4.1617,4.1619,4.1632,4.1629,4.1633,4.1639,4.1643,4.1644,4.1646,4.1649,4.165,4.1634,4.1634,4.1634,0,4.1574,4.1584,4.1584,4.1591,4.1594,4.1592,4.1599,4.1602,4.1608,4.161,4.1607,4.1618,4.162,4.1629,4.1632,4.1634,4.1635,4.1633,4.1644,4.1645,4.1646,4.165,4.1651,4.1635,4.1635,4.1635,4.1634,0,4.159,4.1597,4.1603,4.1609,4.1612,4.162,4.162,4.1624,4.1623,4.1624,4.1631,4.1634,4.1638,4.1641,4.164,4.1649,4.1647,4.1645,4.164,4.1648,4.1651,4.1652,4.1635,4.1635,4.1635,4.1635,0,0,4.1608,4.1613,4.1615,4.1617,4.1621,4.1626,4.1632,4.1637,4.1639,4.1643,4.1648,4.1655,4.1652,4.1655,4.1654,4.1658,4.1666,4.1655,4.1655,4.1656,4.1674,4.1676,4.1677,4.1664,4.1665,4.1665,4.1674,0,4.162,4.1632,4.1632,4.1642,4.1647,4.1645,4.165,4.1653,4.1653,4.1657,4.1658,4.1662,4.1659,4.166,4.1664,4.1664,4.1669,4.1664,4.1668,4.1668,4.1666,4.1679,4.1681,4.1689,4.1675,4.1675,4.1675,0,4.1636,4.164,4.1651,4.1654,4.1656,4.1661,4.1664,4.1669,4.1671,4.1671,4.1673,4.1672,4.1677,4.1672,4.1679,4.1675,4.1677,4.1677,4.1677,4.1677,4.1672,4.1678,4.1692,4.1693,4.1677,4.1677,4.1677,0,4.1646,4.1654,4.1662,4.1663,4.1667,4.167,4.1671,4.1673,4.1676,4.1679,4.168,4.1684,4.1686,4.1688,4.1687,4.1684,4.1693,4.1689,4.1693,4.1693,4.1695,4.1694,4.1708,4.1697,4.1697,4.1697,4.1697,0,4.1659,4.1666,4.1666,4.167,4.1677,4.1676,4.1683,4.1684,4.1685,4.1689,4.1687,4.1691,4.1689,4.1693,4.1692,4.1697,4.1698,4.1697,4.1697,4.1697,4.1697,4.1698,4.1697,4.1697,4.1697,4.1697,4.1697,0,4.1671,4.1672,4.1679,4.1681,4.1682,4.1687,4.1688,4.1692,4.1692,4.1697,4.1698,4.1698,4.1701,4.1701,4.1705,4.1704,4.171,4.1709,4.1709,4.1709,4.1712,4.1712,4.1726,4.1728,4.1716,4.1717,4.1717,0,4.1679,4.1684,4.1687,4.1689,4.1691,4.1695,4.1697,4.1696,4.1699,4.1701,4.1704,4.1708,4.171,4.1716,4.1716,4.1718,4.1717,4.1722,4.1717,4.1717,4.1716,4.1716,4.1716,4.1723,4.1723,4.1723,4.1723,0,4.1693,4.1693,4.1697,4.17,4.1703,4.1705,4.1708,4.171,4.1709,4.1712,4.1715,4.1717,4.1721,4.1724,4.1726,4.1727,4.1724,4.1725,4.1725,4.1725,4.1725,4.1724,4.1711,4.1724,4.1724,4.1724,4.1724,4.1724,4.1703,4.1706,4.1708,4.1712,4.1714,4.1716,4.1719,4.1719,4.1722,4.1725,4.1725,4.1728,4.173,4.1732,4.1733,4.1736,4.1734,4.1735,4.1736,4.1736,4.1736,4.1725,4.1736,4.1736,4.1736,4.1736,4.1736,0,4.1715,4.1716,4.172,4.1723,4.1726,4.1724,4.1726,4.1728,4.1731,4.1733,4.1735,4.1739,4.1741,4.1741,4.1744,4.1746,4.1745,4.1746,4.1746,4.1746,4.1738,4.1736,4.1747,4.1747,4.1747,4.1747,4.1747,4.1747,4.1722,4.1728,4.1728,4.1734,4.1734,4.1738,4.1739,4.1741,4.1742,4.1746,4.1748,4.1748,4.1749,4.1751,4.1753,4.1753,4.1754,4.1755,4.1755,4.1747,4.1746,4.1745,4.1744,4.1756,4.1756,4.1762,4.1762,4.1762]}]]